Location: Montamat
(43.4852°N, 0.8444°E)
Time: 21:58:51
(UTC+00:00)

Meteor 1-27 Rocket - Pass Details

Date: 14 May 2026
Orbit: 830 x 907 km, 81.3° (Epoch: 10 June)

Event Time Altitude Azimuth Distance (km) Brightness Sun altitude
Exits shadow 23:32:30 55° 96° (E) 1,063 4.0 -27.5°
Maximum altitude 23:32:32 55° 95° (E) 1,063 4.0 -27.5°
Drops below altitude 10° 23:38:08 10° 19° (NNE) 2,534 7.0 -27.6°
Sets 23:40:36 0° 15° (NNE) 3,464 8.0 -27.6°
